Torna al catalogo

STARLINK-1557

AttivoComunicazioniVLEO
NORAD 46034·PAYLOAD·🇺🇸 United States

Lanciato Aug 7, 2020 da Cape Canaveral Space Force Station

Loading…

Prossimi Passaggi (prossime 24 ore)

TLE

AggiornatoSource: CelesTrak SupGP

Epoca: Sep 15, 2026, 00:58 UTC

1 46034C 20055H   26258.04076389  .00046202  00000+0  14854-2 0  2584
2 46034  53.1586 326.2863 0001052 100.3199  58.7261 15.31687459    17

Traccia STARLINK-1557 in tempo reale con AllMySat

Download on the App Store